AFR6720 LFPG-MMSM

Flight info

Callsign AFR6720
Flight time N/A
Altitude 26000
Route ATREX DCT TLA DCT BALIX/M078F260 DCT 6230N02000W 64N030W 64N040W 63N050W DCT NIFTY DCT PEPKI/N0454F260 DCT 5330N07000W 46N080W DCT NOSIK DCT FWA DCT VHP DCT PXV DCT MHZ DCT LSU DCT WAHOO M345 AXEXO UM345 PAZ UT154 LONBU UT169 VITOS VITOS2A
Aircraft B77L/H-SDE2E3FGHIJ3J5J6M1M2P2RWXYZ/LD1B1

Departure

Time N/A
Airport Charles de Gaulle International Airport (LFPG)

Arrival

Time 2026-05-06 11:52
Airport Felipe Ángeles International Airport (MMSM)
Time Latitude Longitude Altitude Speed Heading
2026-05-06 10:20 27.83189 -92.89565 34898 ft 449 kts 216°
2026-05-06 10:20 27.80522 -92.91407 34893 ft 449 kts 216°
2026-05-06 10:20 27.75189 -92.95089 34895 ft 448 kts 216°
2026-05-06 10:21 27.69858 -92.98767 34896 ft 448 kts 216°
2026-05-06 10:21 27.64574 -93.02408 34895 ft 448 kts 216°
2026-05-06 10:22 27.59246 -93.06075 34897 ft 448 kts 216°
2026-05-06 10:22 27.53922 -93.09736 34893 ft 448 kts 216°
2026-05-06 10:23 27.48845 -93.13222 34894 ft 448 kts 216°
2026-05-06 10:23 27.43292 -93.17028 34868 ft 448 kts 216°
2026-05-06 10:24 27.37960 -93.20680 34889 ft 449 kts 216°
2026-05-06 10:24 27.32618 -93.24335 34895 ft 449 kts 216°
2026-05-06 10:25 27.27265 -93.27995 34895 ft 450 kts 216°
2026-05-06 10:25 27.21906 -93.31654 34893 ft 451 kts 216°
2026-05-06 10:26 27.16568 -93.35295 34895 ft 451 kts 216°
2026-05-06 10:26 27.11186 -93.38961 34882 ft 452 kts 215°
2026-05-06 10:27 27.05811 -93.42619 34891 ft 452 kts 215°
2026-05-06 10:27 27.00462 -93.46255 34892 ft 452 kts 215°
2026-05-06 10:28 26.95073 -93.49913 34897 ft 452 kts 215°
2026-05-06 10:28 26.89684 -93.53568 34877 ft 452 kts 215°
2026-05-06 10:29 26.84302 -93.57214 34885 ft 452 kts 215°
2026-05-06 10:29 26.78908 -93.60865 34871 ft 452 kts 215°
2026-05-06 10:30 26.73521 -93.64506 34884 ft 452 kts 215°
2026-05-06 10:30 26.68127 -93.68148 34887 ft 453 kts 215°
2026-05-06 10:31 26.62763 -93.71767 34890 ft 453 kts 215°
2026-05-06 10:31 26.57350 -93.75415 34893 ft 454 kts 215°
2026-05-06 10:32 26.51941 -93.79055 34885 ft 454 kts 215°
2026-05-06 10:32 26.46517 -93.82707 34872 ft 455 kts 214°
2026-05-06 10:33 26.41091 -93.86357 34884 ft 455 kts 214°
2026-05-06 10:33 26.35695 -93.89984 34882 ft 455 kts 214°
2026-05-06 10:34 26.30265 -93.93630 34880 ft 456 kts 214°
2026-05-06 10:34 26.24831 -93.97274 34881 ft 456 kts 214°
2026-05-06 10:35 26.19393 -94.00918 34863 ft 456 kts 214°
2026-05-06 10:35 26.13953 -94.04558 34872 ft 456 kts 214°
2026-05-06 10:36 26.08518 -94.08191 34879 ft 456 kts 214°
2026-05-06 10:36 26.03069 -94.11829 34878 ft 456 kts 214°
2026-05-06 10:37 25.97661 -94.15437 34871 ft 456 kts 214°
2026-05-06 10:37 25.92212 -94.19067 34872 ft 456 kts 214°
2026-05-06 10:38 25.86750 -94.22702 34860 ft 456 kts 213°
2026-05-06 10:38 25.81330 -94.26305 34870 ft 456 kts 213°
2026-05-06 10:39 25.75876 -94.29927 34869 ft 456 kts 213°
2026-05-06 10:39 25.70416 -94.33549 34870 ft 457 kts 213°
2026-05-06 10:40 25.64956 -94.37167 34865 ft 457 kts 213°
2026-05-06 10:40 25.59504 -94.40777 34863 ft 457 kts 213°
2026-05-06 10:41 25.54077 -94.44366 34855 ft 457 kts 213°
2026-05-06 10:41 25.48616 -94.47973 34865 ft 457 kts 213°
2026-05-06 10:42 25.43141 -94.51586 34870 ft 457 kts 213°
2026-05-06 10:42 25.37701 -94.55173 34866 ft 458 kts 213°
2026-05-06 10:43 25.32213 -94.58786 34865 ft 458 kts 213°
2026-05-06 10:44 25.23917 -94.64039 34845 ft 458 kts 212°
2026-05-06 10:44 25.19303 -94.66926 34856 ft 458 kts 212°
2026-05-06 10:45 25.12848 -94.70980 34853 ft 459 kts 212°
2026-05-06 10:45 25.08200 -94.73904 34867 ft 459 kts 212°
2026-05-06 10:46 25.02684 -94.77371 34866 ft 459 kts 212°
2026-05-06 10:46 24.97134 -94.80855 34855 ft 459 kts 212°
2026-05-06 10:47 24.91582 -94.84337 34839 ft 459 kts 212°
2026-05-06 10:47 24.86024 -94.87819 34855 ft 459 kts 212°
2026-05-06 10:48 24.80453 -94.91311 34852 ft 460 kts 212°
2026-05-06 10:48 24.74930 -94.94783 34853 ft 460 kts 212°
2026-05-06 10:49 24.69365 -94.98278 34861 ft 460 kts 212°
2026-05-06 10:49 24.63801 -95.01769 34841 ft 460 kts 212°
2026-05-06 10:50 24.58231 -95.05259 34835 ft 460 kts 212°
2026-05-06 10:50 24.52679 -95.08735 34847 ft 459 kts 212°
2026-05-06 10:51 24.47149 -95.12193 34849 ft 459 kts 212°
2026-05-06 10:51 24.41596 -95.15647 34842 ft 459 kts 212°
2026-05-06 10:52 24.36039 -95.19091 34834 ft 458 kts 212°
2026-05-06 10:52 24.30484 -95.22540 34852 ft 458 kts 212°
2026-05-06 10:53 24.24934 -95.25992 34842 ft 458 kts 211°
2026-05-06 10:53 24.19381 -95.29442 34842 ft 459 kts 211°
2026-05-06 10:54 24.13820 -95.32894 34841 ft 459 kts 211°
2026-05-06 10:54 24.08284 -95.36325 34837 ft 460 kts 211°
2026-05-06 10:55 24.02721 -95.39770 34835 ft 460 kts 211°
2026-05-06 10:55 23.97131 -95.43229 34828 ft 460 kts 211°
2026-05-06 10:56 23.91594 -95.46651 34828 ft 460 kts 211°
2026-05-06 10:56 23.86016 -95.50096 34832 ft 460 kts 211°
2026-05-06 10:57 23.80444 -95.53533 34833 ft 460 kts 211°
2026-05-06 10:57 23.74856 -95.56977 34828 ft 460 kts 211°
2026-05-06 10:58 23.69309 -95.60393 34830 ft 461 kts 211°
2026-05-06 10:58 23.63719 -95.63828 34816 ft 461 kts 211°
2026-05-06 10:59 23.58120 -95.67255 34825 ft 461 kts 211°
2026-05-06 10:59 23.52509 -95.70685 34829 ft 462 kts 211°
2026-05-06 11:00 23.46933 -95.74094 34827 ft 462 kts 211°
2026-05-06 11:00 23.41320 -95.77522 34824 ft 462 kts 211°
2026-05-06 11:01 23.35715 -95.80942 34818 ft 462 kts 211°
2026-05-06 11:01 23.30103 -95.84364 34806 ft 462 kts 210°
2026-05-06 11:02 23.24493 -95.87780 34813 ft 462 kts 210°
2026-05-06 11:02 23.18920 -95.91172 34817 ft 462 kts 210°
2026-05-06 11:03 23.13298 -95.94591 34813 ft 462 kts 210°
2026-05-06 11:03 23.07668 -95.98021 34812 ft 463 kts 210°
2026-05-06 11:04 23.02081 -96.01419 34812 ft 463 kts 210°
2026-05-06 11:04 22.96445 -96.04842 34795 ft 463 kts 210°
2026-05-06 11:05 22.90806 -96.08265 34808 ft 464 kts 210°
2026-05-06 11:05 22.85196 -96.11667 34803 ft 465 kts 210°
2026-05-06 11:06 22.79537 -96.15097 34802 ft 465 kts 210°
2026-05-06 11:06 22.73885 -96.18518 34803 ft 465 kts 210°
2026-05-06 11:07 22.68229 -96.21939 34799 ft 465 kts 210°
2026-05-06 11:07 22.62608 -96.25335 34786 ft 465 kts 210°
2026-05-06 11:08 22.56948 -96.28752 34796 ft 465 kts 210°
2026-05-06 11:08 22.51310 -96.32153 34793 ft 466 kts 210°
2026-05-06 11:09 22.45643 -96.35567 34786 ft 466 kts 210°
2026-05-06 11:09 22.39965 -96.38986 34788 ft 466 kts 210°
2026-05-06 11:10 22.34285 -96.42401 34783 ft 467 kts 210°
2026-05-06 11:10 22.28608 -96.45813 34776 ft 467 kts 210°
2026-05-06 11:11 22.22969 -96.49199 34786 ft 466 kts 210°
2026-05-06 11:11 22.17293 -96.52604 34775 ft 466 kts 210°
2026-05-06 11:12 22.11622 -96.55996 34773 ft 465 kts 210°
2026-05-06 11:12 22.05955 -96.59372 34769 ft 465 kts 209°
2026-05-06 11:13 22.00288 -96.62747 34771 ft 465 kts 209°
2026-05-06 11:13 21.94626 -96.66118 34776 ft 464 kts 210°
2026-05-06 11:14 21.88973 -96.69481 34768 ft 464 kts 209°
2026-05-06 11:14 21.83344 -96.72826 34769 ft 463 kts 209°
2026-05-06 11:15 21.77691 -96.76184 34765 ft 463 kts 209°
2026-05-06 11:15 21.72042 -96.79536 34763 ft 464 kts 209°
2026-05-06 11:16 21.66414 -96.82872 34760 ft 464 kts 209°
2026-05-06 11:16 21.60755 -96.86226 34750 ft 465 kts 209°
2026-05-06 11:17 21.55077 -96.89590 34764 ft 466 kts 209°
2026-05-06 11:17 21.49415 -96.92940 34762 ft 468 kts 209°
2026-05-06 11:18 21.43691 -96.96327 34760 ft 469 kts 209°
2026-05-06 11:18 21.37969 -96.99713 34759 ft 470 kts 209°
2026-05-06 11:19 21.32236 -97.03102 34760 ft 471 kts 209°
2026-05-06 11:19 21.26498 -97.06492 34761 ft 470 kts 209°
2026-05-06 11:20 21.20801 -97.09855 34755 ft 470 kts 209°
2026-05-06 11:20 21.15071 -97.13233 34755 ft 469 kts 209°
2026-05-06 11:21 21.09356 -97.16600 34749 ft 468 kts 209°
2026-05-06 11:21 21.03641 -97.19964 34746 ft 468 kts 209°
2026-05-06 11:22 20.97929 -97.23323 34735 ft 468 kts 209°
2026-05-06 11:22 20.92250 -97.26660 34740 ft 468 kts 209°
2026-05-06 11:23 20.86533 -97.30016 34744 ft 469 kts 209°
2026-05-06 11:23 20.80800 -97.33379 34738 ft 470 kts 209°
2026-05-06 11:24 20.75074 -97.36735 34301 ft 477 kts 209°
2026-05-06 11:24 20.72169 -97.38438 33802 ft 474 kts 209°
2026-05-06 11:24 20.69285 -97.40126 33220 ft 470 kts 209°
2026-05-06 11:24 20.66431 -97.41796 32679 ft 465 kts 209°
2026-05-06 11:25 20.63626 -97.43491 32153 ft 460 kts 213°
2026-05-06 11:25 20.61036 -97.45460 31649 ft 455 kts 219°
2026-05-06 11:25 20.58673 -97.47621 31163 ft 451 kts 223°
2026-05-06 11:25 20.56469 -97.49983 30657 ft 448 kts 228°
2026-05-06 11:26 20.54462 -97.52502 30174 ft 444 kts 229°
2026-05-06 11:26 20.52484 -97.55030 29639 ft 441 kts 229°
2026-05-06 11:26 20.50526 -97.57537 29076 ft 438 kts 229°
2026-05-06 11:26 20.48577 -97.60023 28557 ft 434 kts 229°
2026-05-06 11:27 20.46640 -97.62483 28053 ft 430 kts 229°
2026-05-06 11:27 20.44722 -97.64910 27561 ft 426 kts 229°
2026-05-06 11:27 20.42814 -97.67318 27083 ft 423 kts 229°
2026-05-06 11:27 20.40923 -97.69702 26613 ft 420 kts 229°
2026-05-06 11:28 20.39045 -97.72066 26144 ft 416 kts 229°
2026-05-06 11:28 20.37203 -97.74385 25687 ft 414 kts 229°
2026-05-06 11:28 20.35349 -97.76719 25241 ft 411 kts 228°
2026-05-06 11:28 20.33502 -97.79041 24772 ft 409 kts 228°
2026-05-06 11:29 20.31667 -97.81349 24308 ft 407 kts 228°
2026-05-06 11:29 20.29839 -97.83645 23855 ft 405 kts 228°
2026-05-06 11:29 20.28017 -97.85936 23423 ft 404 kts 228°
2026-05-06 11:29 20.26206 -97.88211 22913 ft 402 kts 228°
2026-05-06 11:30 20.24400 -97.90478 22469 ft 399 kts 228°
2026-05-06 11:30 20.22611 -97.92724 22016 ft 397 kts 228°
2026-05-06 11:30 20.20827 -97.94964 21616 ft 393 kts 227°
2026-05-06 11:30 20.19062 -97.97177 21172 ft 392 kts 227°
2026-05-06 11:31 20.17301 -97.99384 20741 ft 389 kts 227°
2026-05-06 11:31 20.15552 -98.01576 20310 ft 387 kts 228°
2026-05-06 11:31 20.14031 -98.03874 19910 ft 385 kts 241°
2026-05-06 11:31 20.13098 -98.06545 19557 ft 386 kts 255°
2026-05-06 11:32 20.12752 -98.09369 19129 ft 384 kts 267°
2026-05-06 11:32 20.12758 -98.12203 18723 ft 382 kts 269°
2026-05-06 11:32 20.12775 -98.15031 18294 ft 382 kts 269°
2026-05-06 11:32 20.12781 -98.17853 17833 ft 381 kts 268°
2026-05-06 11:33 20.12777 -98.19718 17570 ft 379 kts 268°
2026-05-06 11:33 20.12764 -98.22507 17254 ft 374 kts 268°
2026-05-06 11:33 20.12743 -98.25259 16951 ft 368 kts 268°
2026-05-06 11:33 20.12720 -98.27932 16844 ft 355 kts 268°
2026-05-06 11:34 20.12651 -98.31360 16405 ft 348 kts 265°
2026-05-06 11:34 20.12508 -98.33096 16122 ft 348 kts 262°
2026-05-06 11:34 20.12243 -98.35648 15754 ft 346 kts 263°
2026-05-06 11:34 20.11985 -98.38185 15368 ft 344 kts 263°
2026-05-06 11:35 20.11748 -98.40707 14985 ft 342 kts 264°
2026-05-06 11:35 20.11520 -98.43212 14672 ft 338 kts 264°
2026-05-06 11:35 20.11299 -98.45627 14604 ft 328 kts 264°
2026-05-06 11:35 20.11074 -98.48060 14615 ft 331 kts 264°
2026-05-06 11:36 20.10852 -98.50464 14608 ft 320 kts 264°
2026-05-06 11:36 20.10420 -98.52714 14571 ft 303 kts 247°
2026-05-06 11:36 20.09513 -98.54733 14518 ft 301 kts 243°
2026-05-06 11:36 20.08581 -98.56733 14440 ft 302 kts 244°
2026-05-06 11:37 20.07657 -98.58737 14374 ft 301 kts 244°
2026-05-06 11:37 20.06741 -98.60741 14302 ft 300 kts 244°
2026-05-06 11:37 20.05833 -98.62740 14211 ft 299 kts 244°
2026-05-06 11:37 20.04944 -98.64705 14140 ft 298 kts 245°
2026-05-06 11:38 20.04049 -98.66691 14080 ft 297 kts 245°
2026-05-06 11:38 20.03156 -98.68673 14003 ft 297 kts 245°
2026-05-06 11:38 20.02266 -98.70652 13917 ft 296 kts 245°
2026-05-06 11:38 20.01377 -98.72629 13852 ft 297 kts 245°
2026-05-06 11:39 20.00487 -98.74608 13776 ft 296 kts 245°
2026-05-06 11:39 19.99598 -98.76586 13735 ft 297 kts 245°
2026-05-06 11:39 19.98708 -98.78563 13678 ft 294 kts 245°
2026-05-06 11:39 19.97838 -98.80493 13609 ft 285 kts 245°
2026-05-06 11:40 19.96984 -98.82341 13555 ft 272 kts 242°
2026-05-06 11:40 19.96074 -98.84126 13531 ft 276 kts 241°
2026-05-06 11:40 19.95144 -98.85917 13485 ft 276 kts 241°
2026-05-06 11:40 19.94224 -98.87695 13421 ft 273 kts 242°
2026-05-06 11:41 19.93328 -98.89437 13395 ft 271 kts 242°
2026-05-06 11:41 19.92427 -98.91194 13347 ft 270 kts 242°
2026-05-06 11:41 19.91533 -98.92940 13300 ft 268 kts 242°
2026-05-06 11:41 19.90648 -98.94671 13246 ft 266 kts 242°
2026-05-06 11:42 19.89837 -98.96425 13190 ft 264 kts 248°
2026-05-06 11:42 19.89189 -98.98241 13149 ft 262 kts 250°
2026-05-06 11:42 19.88554 -99.00069 13106 ft 265 kts 250°
2026-05-06 11:42 19.87896 -99.01916 13053 ft 269 kts 249°
2026-05-06 11:43 19.87224 -99.03778 13001 ft 269 kts 249°
2026-05-06 11:43 19.86557 -99.05618 12833 ft 272 kts 249°
2026-05-06 11:43 19.85873 -99.07496 12618 ft 271 kts 249°
2026-05-06 11:44 19.84541 -99.11171 12149 ft 261 kts 250°
2026-05-06 11:44 19.83973 -99.12979 11919 ft 256 kts 252°
2026-05-06 11:44 19.83428 -99.14769 11705 ft 254 kts 252°
2026-05-06 11:44 19.82877 -99.16562 11488 ft 257 kts 251°
2026-05-06 11:45 19.82319 -99.18376 11303 ft 259 kts 252°
2026-05-06 11:45 19.81649 -99.20139 11043 ft 258 kts 235°
2026-05-06 11:45 19.80309 -99.21361 10714 ft 257 kts 199°
2026-05-06 11:45 19.78562 -99.21569 10536 ft 251 kts 171°
2026-05-06 11:46 19.76865 -99.21314 10645 ft 244 kts 173°
2026-05-06 11:46 19.75139 -99.21121 10416 ft 258 kts 174°
2026-05-06 11:46 19.73374 -99.20952 10290 ft 248 kts 175°
2026-05-06 11:46 19.71683 -99.20781 10046 ft 240 kts 174°
2026-05-06 11:47 19.70076 -99.20604 9860 ft 227 kts 174°
2026-05-06 11:47 19.68537 -99.20347 9625 ft 224 kts 159°
2026-05-06 11:47 19.67182 -99.19549 9582 ft 223 kts 147°
2026-05-06 11:47 19.65952 -99.18567 9500 ft 218 kts 131°
2026-05-06 11:48 19.65343 -99.17174 9183 ft 206 kts 91°
2026-05-06 11:48 19.65573 -99.15733 9023 ft 196 kts 76°
2026-05-06 11:48 19.65863 -99.14313 9074 ft 200 kts 79°
2026-05-06 11:48 19.66213 -99.12907 9060 ft 197 kts 63°
2026-05-06 11:49 19.67008 -99.11739 8982 ft 191 kts 49°
2026-05-06 11:49 19.67874 -99.10729 8909 ft 182 kts 48°
2026-05-06 11:49 19.68702 -99.09720 8627 ft 179 kts 49°
2026-05-06 11:49 19.69503 -99.08731 8704 ft 175 kts 49°
2026-05-06 11:50 19.70296 -99.07771 8528 ft 170 kts 49°
2026-05-06 11:50 19.71068 -99.06823 8250 ft 170 kts 49°
2026-05-06 11:50 19.71839 -99.05886 7953 ft 168 kts 49°
2026-05-06 11:50 19.72605 -99.04950 7652 ft 168 kts 50°
2026-05-06 11:51 19.73366 -99.04021 7410 ft 170 kts 50°
2026-05-06 11:51 19.74104 -99.03119 7380 ft 148 kts 49°
2026-05-06 11:51 19.74676 -99.02420 7380 ft 103 kts 49°
2026-05-06 11:51 19.75043 -99.01969 7381 ft 53 kts 49°
2026-05-06 11:52 19.75263 -99.01701 7381 ft 46 kts 48°
2026-05-06 11:52 19.75401 -99.01529 7380 ft 10 kts 63°
2026-05-06 11:52 19.75380 -99.01460 7380 ft 11 kts 139°
2026-05-06 11:52 19.75326 -99.01408 7380 ft 11 kts 137°
2026-05-06 11:53 19.75277 -99.01351 7381 ft 11 kts 112°
2026-05-06 11:53 19.75285 -99.01277 7380 ft 11 kts 56°
2026-05-06 11:53 19.75332 -99.01216 7381 ft 11 kts 50°
2026-05-06 11:53 19.75380 -99.01156 7381 ft 11 kts 48°
2026-05-06 11:54 19.75432 -99.01099 7382 ft 11 kts 46°
2026-05-06 11:54 19.75468 -99.01036 7382 ft 10 kts 86°
2026-05-06 11:54 19.75446 -99.00969 7382 ft 10 kts 89°
2026-05-06 11:54 19.75480 -99.00909 7382 ft 9 kts 49°
2026-05-06 11:55 19.75496 -99.00889 7381 ft 2 kts 57°
2026-05-06 11:55 19.75478 -99.00849 7381 ft 10 kts 138°
2026-05-06 11:55 19.75441 -99.00817 7382 ft 4 kts 140°
2026-05-06 11:55 19.75434 -99.00810 7382 ft 0 kts 139°